User: anonymous   Login
Location: ??????
(55.6130°N, 37.7882°E)
Time: 16:22:55
(UTC+00:00)
Language:

Cosmos 773 Rocket - Orbit

View from above orbital plane
View from above orbital plane
View from above satellite
View from above satellite

Ground track
Ground track

The orbit data is extracted from the following two-line orbital elements,

1 08344U 75094B   24170.87217595  .00000369  00000-0  12561-3 0  9998
2 08344  74.0567  89.5407 0020528  69.0776 291.2574 14.39867726553506
Epoch (UTC): 18 June 2024 20:55:56
Eccentricity: 0.0020528
inclination: 74.0567°
perigee height: 744 km
apogee height: 773 km
right ascension of ascending node: 89.5407°
argument of perigee: 69.0776°
revolutions per day: 14.39867726
mean anomaly at epoch: 291.2574°
orbit number at epoch: 55350

The dashed part of the orbit path shows where the satellite is in the earth's shadow,  

DLR